Volver al catálogo

STARLINK-2193

ActivoComunicacionesVLEO
NORAD 47770·PAYLOAD·🇺🇸 United States

Lanzado Mar 4, 2021 desde Cape Canaveral Space Force Station

Loading…

Próximos Pases (próximas 24 horas)

TLE

ActualizadoSource: CelesTrak SupGP

Época: Sep 14, 2026, 21:30 UTC

1 47770C 21017BA  26257.89631944  .00046101  00000+0  14824-2 0  2571
2 47770  53.1601  43.3957 0001191  71.4061  63.9585 15.31681438    12

Sigue STARLINK-2193 en tiempo real con AllMySat

Download on the App Store